FW9021 Weather Reports


Display with metric or nautical units.
time (UTC)temp
F
wind
direction
speed
MPH
gust
MPH
rain 1hr
in
rain 24hr
in
rain mn
in
humidity
%
barometer
mb
20260510023045 62 44 0.0 2.0 0.00 0.00 0.00 85 1013.2
20260510022540 62 0 0.0 2.0 0.00 0.00 0.00 85 1013.3
20260510022040 62 0 0.0 2.0 0.00 0.00 0.00 85 1013.3
20260510021547 63 44 0.0 2.0 0.00 0.00 0.00 85 1013.3
20260510021041 63 0 0.0 2.0 0.00 0.00 0.00 85 1013.2
20260510020541 63 44 0.0 3.0 0.00 0.00 0.00 85 1013.1
20260510020045 63 44 0.0 3.0 0.00 0.00 0.00 85 1013.1
20260510015540 63 59 0.0 2.0 0.00 0.00 0.00 85 1013.1
20260510015040 63 0 0.0 3.0 0.00 0.00 0.00 85 1013.0
20260510014547 63 53 1.0 4.0 0.00 0.00 0.00 85 1012.9
20260510014040 63 32 2.0 4.0 0.00 0.00 0.00 85 1012.9
20260510013541 63 0 0.0 2.0 0.00 0.00 0.00 84 1012.9
20260510013046 64 51 0.0 4.0 0.00 0.00 0.00 84 1012.8
20260510012543 64 0 1.0 4.0 0.00 0.00 0.00 84 1012.9
20260510012042 64 27 3.0 4.0 0.00 0.00 0.00 84 1012.8
20260510011550 64 127 0.0 2.0 0.00 0.00 0.00 83 1012.8
20260510011041 64 0 0.0 2.0 0.00 0.00 0.00 83 1012.6
20260510010540 64 127 0.0 2.0 0.00 0.00 0.00 83 1012.6
20260510010050 64 0 0.0 2.0 0.00 0.00 0.00 82 1012.6
20260510005540 65 0 0.0 2.0 0.00 0.00 0.00 82 1012.4
20260510005039 65 127 0.0 2.0 0.00 0.00 0.00 82 1012.2
20260510004548 65 0 0.0 2.0 0.00 0.00 0.00 82 1012.1
20260510004040 65 127 1.0 4.0 0.00 0.00 0.00 81 1012.1
20260510003541 65 0 0.0 7.0 0.00 0.00 0.00 82 1012.0
20260510003056 65 194 2.0 7.0 0.00 0.00 0.00 82 1012.0
20260510002540 66 226 3.0 10.0 0.00 0.00 0.00 82 1011.9
20260510002040 66 229 4.0 10.0 0.00 0.00 0.00 82 1011.9
20260510001547 66 255 7.0 10.0 0.00 0.00 0.00 81 1011.7
20260510001040 66 239 5.0 11.0 0.00 0.00 0.00 82 1011.7
20260510000543 66 200 5.0 11.0 0.00 0.00 0.00 81 1011.7
20260510000048 66 234 8.0 11.0 0.00 0.00 0.00 81 1011.7
20260509235540 66 225 7.0 13.0 0.00 0.00 0.00 80 1011.7
20260509235040 66 259 7.0 13.0 0.00 0.00 0.00 80 1011.7
20260509234545 67 252 7.0 13.0 0.00 0.00 0.00 79 1011.8
20260509234039 67 241 7.0 12.0 0.00 0.00 0.00 79 1011.8
20260509233542 67 246 6.0 14.0 0.00 0.00 0.00 79 1011.5
20260509233047 67 205 6.0 14.0 0.00 0.00 0.00 78 1011.5
20260509232542 67 240 9.0 13.0 0.00 0.00 0.00 78 1011.5
20260509232039 67 243 10.0 13.0 0.00 0.00 0.00 80 1011.5
20260509231559 67 261 8.0 14.0 0.00 0.00 0.00 79 1011.3
20260509231038 67 259 9.0 14.0 0.00 0.00 0.00 79 1011.3
20260509230539 67 232 11.0 14.0 0.00 0.00 0.00 78 1011.2
20260509225538 68 229 9.0 12.0 0.00 0.00 0.00 79 1011.2
20260509225038 68 232 7.0 11.0 0.00 0.00 0.00 78 1011.3
20260509224600 68 236 6.0 12.0 0.00 0.00 0.00 77 1011.2
20260509224041 68 234 6.0 12.0 0.00 0.00 0.00 77 1011.1
20260509223538 68 244 8.0 11.0 0.00 0.00 0.00 77 1011.1
20260509223052 68 241 7.0 11.0 0.00 0.00 0.00 76 1011.2
20260509222538 68 232 7.0 11.0 0.00 0.00 0.00 77 1011.1
20260509222038 68 257 5.0 8.0 0.00 0.00 0.00 76 1011.1
20260509221551 68 229 5.0 8.0 0.00 0.00 0.00 75 1010.9
20260509221038 68 246 4.0 7.0 0.00 0.00 0.00 76 1010.8
20260509220539 68 229 3.0 9.0 0.00 0.00 0.00 76 1011.0
20260509220046 68 254 5.0 11.0 0.00 0.00 0.00 76 1011.1
20260509215539 68 246 7.0 12.0 0.00 0.00 0.00 76 1011.0
20260509215039 68 251 8.0 12.0 0.00 0.00 0.00 76 1011.1
20260509214547 68 262 8.0 11.0 0.00 0.00 0.00 76 1011.0
20260509214038 68 265 7.0 11.0 0.00 0.00 0.00 77 1011.0
20260509213539 68 242 8.0 13.0 0.00 0.00 0.00 77 1011.0
20260509213057 68 262 9.0 13.0 0.00 0.00 0.00 76 1010.9
20260509212538 68 229 9.0 13.0 0.00 0.00 0.00 77 1010.9
20260509212038 68 263 9.0 12.0 0.00 0.00 0.00 76 1010.8
20260509211551 68 243 7.0 12.0 0.00 0.00 0.00 75 1010.8
20260509211038 68 252 7.0 13.0 0.00 0.00 0.00 75 1011.0
20260509210538 68 240 7.0 13.0 0.00 0.00 0.00 75 1010.8
20260509210058 68 259 10.0 13.0 0.00 0.00 0.00 77 1010.9
20260509205541 68 246 8.0 12.0 0.00 0.00 0.00 78 1010.8
20260509205039 68 237 6.0 10.0 0.00 0.00 0.00 77 1010.7
20260509204555 68 242 6.0 10.0 0.00 0.00 0.00 76 1010.4
20260509204038 68 238 5.0 11.0 0.00 0.00 0.00 76 1010.4
20260509203538 68 247 8.0 11.0 0.00 0.00 0.00 76 1010.3
20260509203057 68 243 8.0 10.0 0.00 0.00 0.00 76 1010.2
20260509202539 68 255 6.0 10.0 0.00 0.00 0.00 76 1010.3
20260509202039 68 217 7.0 10.0 0.00 0.00 0.00 77 1010.3
20260509201552 67 250 5.0 10.0 0.00 0.00 0.00 77 1010.3
20260509201038 67 265 7.0 10.0 0.00 0.00 0.00 76 1010.3
20260509200538 67 248 7.0 10.0 0.00 0.00 0.00 76 1010.6
20260509200049 67 256 6.0 12.0 0.00 0.00 0.00 77 1010.4
20260509195542 67 246 7.0 12.0 0.00 0.00 0.00 75 1010.5
20260509195042 68 223 7.0 12.0 0.00 0.00 0.00 76 1010.6
20260509194546 67 238 7.0 13.0 0.00 0.00 0.00 75 1010.5
20260509194038 68 236 8.0 13.0 0.00 0.00 0.00 74 1010.8
20260509193540 67 275 5.0 10.0 0.00 0.00 0.00 75 1010.8
20260509193043 67 238 6.0 13.0 0.00 0.00 0.00 74 1010.7
20260509192538 67 252 9.0 13.0 0.00 0.00 0.00 74 1010.6
20260509192038 68 242 7.0 13.0 0.00 0.00 0.00 75 1010.7
20260509191548 67 262 9.0 12.0 0.00 0.00 0.00 74 1010.7
20260509191038 68 254 8.0 11.0 0.00 0.00 0.00 74 1010.9
20260509190537 68 270 7.0 11.0 0.00 0.00 0.00 73 1010.8
20260509190049 68 257 5.0 10.0 0.00 0.00 0.00 72 1010.9
20260509185539 68 248 1.0 5.0 0.00 0.00 0.00 70 1010.7
20260509185039 68 259 2.0 5.0 0.00 0.00 0.00 69 1010.6
20260509184552 68 263 1.0 4.0 0.00 0.00 0.00 70 1010.6
20260509184038 68 290 1.0 4.0 0.00 0.00 0.00 70 1010.7
20260509183538 68 260 2.0 4.0 0.00 0.00 0.00 70 1011.0
20260509183049 68 265 2.0 4.0 0.00 0.00 0.00 70 1011.0
20260509182539 68 0 1.0 7.0 0.00 0.00 0.00 71 1011.0
20260509182039 68 278 2.0 7.0 0.00 0.00 0.00 71 1010.9
20260509181607 68 305 3.0 7.0 0.00 0.00 0.00 71 1010.9
20260509181039 68 261 2.0 5.0 0.00 0.00 0.00 71 1010.8
20260509180539 68 235 3.0 6.0 0.00 0.00 0.00 70 1010.7
20260509180110 68 233 2.0 6.0 0.00 0.00 0.00 71 1010.6
20260509175538 67 24 1.0 3.0 0.00 0.00 0.00 70 1010.4
20260509175038 67 303 0.0 6.0 0.00 0.00 0.00 72 1010.4
20260509174553 67 0 1.0 6.0 0.00 0.00 0.00 71 1010.8
20260509174042 67 253 2.0 6.0 0.00 0.00 0.00 73 1010.8
20260509173538 66 319 2.0 6.0 0.00 0.00 0.00 72 1011.1
20260509173059 66 209 3.0 9.0 0.00 0.00 0.00 72 1011.2
20260509172539 66 218 3.0 11.0 0.00 0.00 0.00 72 1011.2
20260509172040 66 267 5.0 11.0 0.00 0.00 0.00 73 1011.2
20260509171551 66 252 3.0 10.0 0.00 0.00 0.00 74 1011.3
20260509171039 65 243 3.0 10.0 0.00 0.00 0.00 74 1011.1
20260509170538 65 248 4.0 11.0 0.00 0.00 0.00 75 1011.3
20260509170051 65 261 8.0 11.0 0.00 0.00 0.00 75 1011.4
20260509165538 65 225 3.0 11.0 0.00 0.00 0.00 76 1011.6
20260509165038 65 266 6.0 11.0 0.00 0.00 0.00 77 1011.6
20260509164556 65 254 6.0 10.0 0.00 0.00 0.00 77 1011.6
20260509164039 64 226 5.0 12.0 0.00 0.00 0.00 78 1011.6
20260509163538 64 254 5.0 12.0 0.00 0.00 0.00 77 1011.5
20260509163053 64 226 5.0 14.0 0.00 0.00 0.00 77 1011.5
20260509162539 64 232 7.0 15.0 0.00 0.00 0.00 78 1011.6
20260509162040 63 229 8.0 15.0 0.00 0.00 0.00 79 1011.8
20260509161559 63 257 10.0 15.0 0.00 0.00 0.00 80 1011.9
20260509161038 63 252 10.0 15.0 0.00 0.00 0.00 82 1012.1
20260509160539 63 256 12.0 15.0 0.00 0.00 0.00 80 1012.0
20260509160048 62 254 11.0 15.0 0.00 0.00 0.00 81 1011.9
20260509155538 62 242 6.0 15.0 0.00 0.00 0.00 82 1011.8
20260509155038 62 233 9.0 15.0 0.00 0.00 0.00 82 1011.9
20260509154556 61 225 8.0 14.0 0.00 0.00 0.00 84 1012.2
20260509154038 61 242 8.0 15.0 0.00 0.00 0.00 85 1012.0
20260509153543 61 248 10.0 16.0 0.00 0.00 0.00 85 1012.1
20260509153049 61 217 10.0 17.0 0.00 0.00 0.00 85 1012.2
20260509152538 61 221 11.0 17.0 0.00 0.00 0.00 86 1012.2
20260509152038 61 244 11.0 17.0 0.00 0.00 0.00 86 1012.3
20260509151559 61 234 6.0 12.0 0.00 0.00 0.00 86 1012.1
20260509151039 61 204 7.0 13.0 0.00 0.00 0.00 86 1012.2
20260509150541 60 261 9.0 16.0 0.00 0.00 0.00 86 1012.2
20260509150042 60 208 10.0 16.0 0.00 0.00 0.00 86 1012.2
20260509145538 60 250 10.0 17.0 0.00 0.00 0.00 86 1012.3
20260509145042 60 259 12.0 17.0 0.00 0.00 0.00 86 1012.4
20260509144548 60 242 9.0 15.0 0.00 0.00 0.00 86 1012.1
20260509144038 60 255 6.0 10.0 0.00 0.00 0.00 86 1012.1
20260509143539 60 243 6.0 9.0 0.00 0.00 0.00 86 1011.9
20260509143046 60 241 5.0 8.0 0.00 0.00 0.00 86 1011.8
20260509142539 59 243 5.0 8.0 0.00 0.00 0.00 86 1011.5
20260509142038 59 250 4.0 8.0 0.00 0.00 0.00 86 1011.5
20260509141546 59 255 3.0 8.0 0.00 0.00 0.00 86 1011.4
20260509141039 59 264 3.0 8.0 0.00 0.00 0.00 86 1011.4
20260509140538 59 301 3.0 7.0 0.00 0.00 0.00 89 1011.4
20260509140046 58 268 3.0 6.0 0.00 0.00 0.00 86 1011.4
20260509135538 58 244 2.0 5.0 0.00 0.00 0.00 86 1011.2
20260509135039 58 244 2.0 5.0 0.00 0.00 0.00 87 1011.3
20260509134541 58 234 2.0 4.0 0.00 0.00 0.00 87 1011.3
20260509134038 58 261 2.0 3.0 0.00 0.00 0.00 87 1011.4
20260509133539 58 261 1.0 4.0 0.00 0.00 0.00 87 1011.5
20260509133058 58 291 2.0 4.0 0.00 0.00 0.00 87 1011.4
20260509132539 57 328 2.0 4.0 0.00 0.00 0.00 87 1011.5
20260509132039 57 345 2.0 4.0 0.00 0.00 0.00 87 1011.5
20260509131548 57 344 1.0 4.0 0.00 0.00 0.00 86 1011.5
20260509131038 57 355 1.0 4.0 0.00 0.00 0.00 86 1011.5
20260509130538 57 24 1.0 3.0 0.00 0.00 0.00 87 1011.4
20260509130050 56 0 0.0 1.0 0.00 0.00 0.00 87 1011.3
20260509125539 56 0 0.0 2.0 0.00 0.01 0.00 87 1011.3
20260509125038 56 0 0.0 3.0 0.00 0.01 0.00 87 1011.3
20260509124550 56 42 1.0 5.0 0.00 0.01 0.00 86 1011.3
20260509124038 56 0 1.0 5.0 0.00 0.01 0.00 87 1011.4
20260509123538 56 36 3.0 5.0 0.00 0.01 0.00 87 1011.3
20260509123048 56 48 3.0 5.0 0.00 0.01 0.00 87 1011.3
20260509122538 56 44 3.0 5.0 0.00 0.01 0.00 87 1011.4
20260509122038 55 18 1.0 4.0 0.00 0.01 0.00 87 1011.4
20260509121551 55 19 2.0 4.0 0.00 0.01 0.00 87 1011.4
20260509121041 55 32 1.0 4.0 0.00 0.01 0.00 87 1011.4
20260509120539 55 10 0.0 5.0 0.00 0.01 0.00 86 1011.3
20260509120053 55 11 1.0 5.0 0.00 0.01 0.00 87 1011.2
20260509115538 55 19 2.0 5.0 0.00 0.01 0.00 87 1011.2
20260509115038 54 20 2.0 4.0 0.00 0.01 0.00 87 1011.2
20260509114551 54 360 2.0 4.0 0.00 0.01 0.00 87 1011.1
20260509114038 54 0 0.0 4.0 0.00 0.01 0.00 87 1011.3
20260509113538 54 74 1.0 4.0 0.00 0.01 0.00 87 1011.3
20260509113050 54 355 2.0 4.0 0.00 0.01 0.00 87 1011.4
20260509112538 54 5 1.0 4.0 0.00 0.01 0.00 87 1011.4
20260509112038 54 5 1.0 5.0 0.00 0.01 0.00 87 1011.5
20260509111548 54 23 3.0 5.0 0.00 0.01 0.00 87 1011.5
20260509111038 53 26 2.0 5.0 0.00 0.01 0.00 87 1011.5
20260509110540 53 13 2.0 5.0 0.00 0.01 0.00 87 1011.5
20260509110047 53 68 2.0 5.0 0.00 0.01 0.00 87 1011.4
20260509105538 54 344 1.0 4.0 0.00 0.01 0.00 87 1011.2
20260509105039 53 11 1.0 3.0 0.00 0.01 0.00 87 1011.0
20260509104602 53 5 1.0 4.0 0.00 0.01 0.00 87 1011.1
20260509104039 53 0 1.0 4.0 0.00 0.01 0.00 87 1011.0
20260509103538 53 26 1.0 4.0 0.00 0.01 0.00 87 1010.9
20260509103055 53 105 0.0 2.0 0.00 0.01 0.00 87 1011.0
20260509102538 53 67 0.0 2.0 0.00 0.01 0.00 87 1011.0
20260509102042 53 0 0.0 2.0 0.00 0.01 0.00 87 1011.1
20260509101545 53 71 0.0 3.0 0.00 0.01 0.00 87 1011.2
20260509101038 53 0 1.0 4.0 0.00 0.01 0.00 87 1011.3
20260509100540 53 0 1.0 4.0 0.00 0.01 0.00 87 1011.3
20260509100051 53 39 0.0 3.0 0.00 0.01 0.00 87 1011.1
20260509095538 53 0 0.0 4.0 0.00 0.01 0.00 87 1010.9
20260509095039 53 77 2.0 5.0 0.00 0.01 0.00 87 1011.1
20260509094551 53 76 3.0 6.0 0.00 0.01 0.00 87 1011.0
20260509094037 53 32 0.0 7.0 0.00 0.01 0.00 87 1011.1
20260509093539 53 37 2.0 7.0 0.00 0.01 0.00 87 1011.1
20260509093048 53 78 1.0 8.0 0.00 0.01 0.00 87 1011.1
20260509092541 53 5 2.0 8.0 0.00 0.01 0.00 87 1011.2
20260509092038 53 34 3.0 8.0 0.00 0.01 0.00 87 1011.4
20260509091552 54 121 3.0 5.0 0.00 0.01 0.00 87 1011.4
20260509091038 53 12 0.0 5.0 0.00 0.01 0.00 87 1011.3
20260509090539 53 59 3.0 5.0 0.00 0.01 0.00 87 1011.3
20260509090056 53 64 2.0 4.0 0.00 0.01 0.00 87 1011.1
20260509085538 53 102 0.0 3.0 0.00 0.01 0.00 87 1011.0
20260509085038 53 102 1.0 3.0 0.00 0.01 0.00 87 1011.0
20260509084547 53 36 1.0 3.0 0.00 0.01 0.00 87 1011.2
20260509084039 52 0 0.0 3.0 0.00 0.01 0.00 87 1011.2
20260509083538 52 31 0.0 3.0 0.00 0.01 0.00 87 1011.0
20260509083044 52 111 0.0 4.0 0.00 0.01 0.00 87 1011.2
20260509082539 52 111 1.0 5.0 0.00 0.01 0.00 87 1011.2
20260509082040 52 32 2.0 5.0 0.00 0.01 0.00 87 1011.2
20260509081554 52 46 1.0 5.0 0.00 0.01 0.00 87 1011.2
20260509081038 51 71 0.0 2.0 0.00 0.01 0.00 87 1011.1
20260509080542 51 71 0.0 2.0 0.00 0.01 0.00 87 1011.2
20260509080052 51 71 0.0 2.0 0.00 0.01 0.00 87 1011.1
20260509075541 51 0 0.0 2.0 0.00 0.01 0.00 87 1011.1
20260509075043 51 71 1.0 2.0 0.00 0.01 0.00 87 1011.1
20260509074552 52 0 0.0 3.0 0.00 0.01 0.00 87 1011.3
20260509074038 52 51 1.0 3.0 0.00 0.01 0.00 87 1011.2
20260509073538 52 59 0.0 2.0 0.00 0.01 0.00 87 1011.3
20260509073056 52 0 0.0 3.0 0.00 0.01 0.00 87 1011.1
20260509072538 52 59 0.0 3.0 0.00 0.01 0.00 87 1011.3
20260509072038 52 59 0.0 3.0 0.00 0.01 0.00 87 1011.3
20260509071551 52 0 0.0 4.0 0.00 0.01 0.00 87 1011.3
20260509071038 52 90 1.0 4.0 0.00 0.01 0.00 87 1011.2
20260509070541 52 10 2.0 4.0 0.00 0.01 0.00 87 1011.3
20260509070056 52 22 1.0 3.0 0.00 0.01 0.00 87 1011.3
20260509065538 52 107 0.0 3.0 0.00 0.01 0.00 87 1011.5
20260509065040 52 107 1.0 4.0 0.00 0.01 0.00 87 1011.6
20260509064603 52 107 1.0 4.0 0.00 0.01 0.00 87 1011.8
20260509064038 53 51 3.0 4.0 0.00 0.01 0.00 87 1011.9
20260509063540 53 26 1.0 4.0 0.00 0.01 0.00 87 1011.8
20260509063107 53 0 0.0 2.0 0.00 0.01 0.00 87 1011.9
20260509062538 53 0 0.0 3.0 0.00 0.01 0.00 87 1011.9
20260509062038 53 27 1.0 3.0 0.00 0.01 0.00 87 1012.0
20260509061612 53 5 0.0 3.0 0.00 0.01 0.00 87 1012.0
20260509061040 53 97 1.0 3.0 0.00 0.01 0.00 87 1012.2
20260509060541 53 97 1.0 3.0 0.00 0.01 0.00 87 1012.2
20260509060113 53 51 0.0 2.0 0.00 0.01 0.00 87 1012.2
20260509055539 53 0 0.0 2.0 0.00 0.01 0.00 87 1012.3
20260509055041 53 85 1.0 3.0 0.00 0.01 0.00 87 1012.4
20260509054552 54 58 1.0 3.0 0.00 0.01 0.00 87 1012.5
20260509054038 53 50 1.0 3.0 0.00 0.01 0.00 87 1012.4
20260509053540 53 91 1.0 3.0 0.00 0.01 0.00 87 1012.5
20260509053050 53 0 1.0 3.0 0.00 0.01 0.00 87 1012.4
20260509052539 54 71 1.0 2.0 0.00 0.01 0.00 87 1012.4
20260509052038 54 64 0.0 2.0 0.00 0.01 0.00 87 1012.3
20260509051559 54 0 0.0 3.0 0.00 0.01 0.00 86 1012.5
20260509051038 54 64 1.0 4.0 0.00 0.01 0.00 87 1012.7
20260509050538 55 53 2.0 4.0 0.00 0.01 0.00 86 1012.8
20260509050052 55 18 2.0 3.0 0.00 0.01 0.00 86 1012.7
20260509045541 55 100 0.0 2.0 0.00 0.01 0.00 86 1012.8
20260509045041 55 100 0.0 2.0 0.00 0.01 0.00 86 1012.8
20260509044550 55 100 1.0 2.0 0.00 0.01 0.00 86 1012.9
20260509044042 55 100 1.0 2.0 0.00 0.01 0.00 86 1012.9
20260509043539 55 100 1.0 2.0 0.00 0.01 0.00 85 1013.0
20260509043050 55 100 1.0 3.0 0.00 0.01 0.00 85 1012.9
20260509042539 55 112 1.0 3.0 0.00 0.01 0.00 85 1012.9
20260509042038 56 112 1.0 3.0 0.00 0.01 0.00 85 1012.8
20260509041548 56 94 1.0 2.0 0.00 0.01 0.00 85 1012.9
20260509041040 57 94 1.0 2.0 0.00 0.01 0.00 85 1012.8
20260509040540 57 59 0.0 4.0 0.00 0.01 0.00 85 1013.0
20260509040055 57 0 1.0 4.0 0.00 0.01 0.00 85 1012.9
20260509035538 57 37 0.0 3.0 0.00 0.01 0.01 85 1013.0
20260509035041 57 67 0.0 2.0 0.00 0.01 0.01 85 1013.3
20260509034552 57 66 0.0 2.0 0.00 0.01 0.01 85 1013.3
20260509034038 57 61 0.0 2.0 0.00 0.01 0.01 85 1013.3
20260509033539 57 0 0.0 2.0 0.00 0.01 0.01 85 1013.5
20260509033053 57 0 0.0 2.0 0.00 0.01 0.01 85 1013.3
20260509032540 57 0 0.0 2.0 0.00 0.01 0.01 85 1013.2
20260509032038 57 0 0.0 4.0 0.00 0.01 0.01 85 1013.4
20260509031556 57 57 0.0 4.0 0.00 0.01 0.01 85 1013.6
20260509031038 57 56 3.0 4.0 0.00 0.01 0.01 85 1013.7
20260509030538 57 17 2.0 4.0 0.00 0.01 0.01 85 1013.8
20260509030057 57 55 1.0 3.0 0.00 0.01 0.01 85 1013.7
20260509025540 57 59 1.0 3.0 0.00 0.01 0.01 85 1013.7
20260509025043 57 65 1.0 2.0 0.00 0.01 0.01 85 1013.6
20260509024556 57 63 1.0 3.0 0.00 0.01 0.01 84 1013.7
20260509024041 57 59 1.0 3.0 0.00 0.01 0.01 84 1013.5
20260509023538 58 61 1.0 3.0 0.00 0.01 0.01 84 1013.5